[Iaude] MPEC F74: 2019 FK [a=2.00,e=0.45,i=45.5,H=19.8]

mpec at mpcdb1.cfa.harvard.edu mpec at mpcdb1.cfa.harvard.edu
Sun Mar 24 19:25:17 EDT 2019


M.P.E.C. 2019-F74                                Issued 2019 Mar. 24, 23:21 UT
 
     The Minor Planet Electronic Circulars contain information on unusual
         minor planets and routine data on comets.  They are published
    on behalf of Division F of the International Astronomical Union by the
          Minor Planet Center, Smithsonian Astrophysical Observatory,
                          Cambridge, MA 02138, U.S.A.

             Prepared using the Tamkin Foundation Computer Network

                              MPC at CFA.HARVARD.EDU
            URL https://www.minorplanetcenter.net/    ISSN 1523-6714


                                    2019 FK
 
Observations:
     K19F00K* C2019 03 18.13113 05 51 07.53 +11 48 59.6          21.0 GVEF074G96
     K19F00K  C2019 03 18.13639 05 51 08.43 +11 48 34.0          20.5 GVEF074G96
     K19F00K  C2019 03 18.14165 05 51 09.39 +11 48 08.0          21.4 GVEF074G96
     K19F00K  C2019 03 18.14691 05 51 10.29 +11 47 42.0          20.6 GVEF074G96
     K19F00K ^C2019 03 18.20573 05 51 20.71 +11 42 52.5          19.8 RoEF074695
     K19F00K ^C2019 03 18.20827 05 51 21.14 +11 42 40.1          20.2 RoEF074695
     K19F00K ^C2019 03 18.21081 05 51 21.61 +11 42 27.6          20.0 RoEF074695
     K19F00K |C2019 03 19.04269 05 53 51.09 +10 35 32.9          20.9 GUEF074807
     K19F00K |C2019 03 19.04674 05 53 51.81 +10 35 13.7          20.9 GUEF074807
     K19F00K |C2019 03 19.05078 05 53 52.46 +10 34 54.3          20.1 GUEF074807
     K19F00K |C2019 03 19.05483 05 53 53.19 +10 34 35.0          21.1 GUEF074807
     K19F00K |C2019 03 21.03122 05 59 34.64 +08 01 52.6          20.4 VuEF074807
     K19F00K |C2019 03 21.03678 05 59 35.49 +08 01 27.5          20.6 VuEF074807
     K19F00K |C2019 03 21.04248 05 59 36.46 +08 01 01.2          20.6 VuEF074807
     K19F00K KC2019 03 23.07616706 05 10.58 +05 33 29.2          20.9 VuEF074H21
     K19F00K KC2019 03 23.08484306 05 11.93 +05 32 52.2          21.0 VuEF074H21
     K19F00K KC2019 03 23.09195206 05 13.00 +05 32 22.6          21.1 VuEF074H21
 
Observer details:
695 Kitt Peak.  Observer R. A. Mastaler.  2.3-m f/9 reflector + CCD.
807 Cerro Tololo Observatory, La Serena.  Observers T. Linder, R. Holmes.
    1.00-m f/10.0 astrograph + CCD, 0.61-m f/6.5 astrograph + CCD.
G96 Mt. Lemmon Survey.  Observer B. M. Africano.  Measurers B. M. Africano,
    E. J. Christensen, G. A. Farneth, D. C. Fuls, A. R. Gibbs, A. D. Grauer,
    H. Groeller, R. A. Kowalski, S. M. Larson, G. J. Leonard, T. A. Pruyne,
    R. L. Seaman, F. C. Shelly.  1.5-m reflector + 10K CCD.
H21 Astronomical Research Observatory, Westfield.  Observer R. Holmes.
    Measurers S. Foglia, L. Buzzi, T. Linder, R. Holmes.  0.61-m f/4.5
    astrograph + CCD.
 
Orbital elements:
2019 FK                                                  Earth MOID = 0.1271 AU
Epoch 2019 Apr. 27.0 TT = JDT 2458600.5                 MPC
M  20.89954              (2000.0)            P               Q
n   0.34939431     Peri.  167.36840     -0.71107197     -0.57170039
a   1.9964518      Node   324.97300     +0.56699906     -0.12198302
e   0.4458100      Incl.   45.49030     +0.41579889     -0.81134383
P   2.82           H   19.8           G   0.15           U   8
Residuals in seconds of arc
190318 G96  0.2+  0.2-    190318 695  0.1-  0.2+    190321 807  0.7-  0.2+
190318 G96  0.2-  0.1+    190319 807  0.2+  0.2-    190321 807  0.1-  0.4-
190318 G96  0.2+  0.0     190319 807  0.5+  0.0     190323 H21  0.3+  0.2+
190318 G96  0.2-  0.1-    190319 807  0.1-  0.1-    190323 H21  0.2+  0.3-
190318 695  0.1-  0.1+    190319 807  0.3+  0.0     190323 H21  0.3-  0.0
190318 695  0.4-  0.2+    190321 807  0.2+  0.3+

Ephemeris:
2019 FK                  a,e,i = 2.00, 0.45, 45                  q = 1.1064
Date    TT    R. A. (2000) Decl.     Delta      r     Elong.  Phase     V
2019 02 22    03 49 41.9 +52 47 39   0.4346  1.1074    93.9    63.0    20.5
...
2019 03 09    05 18 59.4 +26 00 46   0.4546  1.1127    92.9    63.0    20.6
...
2019 03 17    05 47 38.7 +13 23 34   0.5073  1.1252    91.1    62.1    20.8
...
2019 03 23    06 04 58.6 +05 39 02   0.5597  1.1388    89.5    61.0    21.0
2019 03 24    06 07 37.4 +04 29 59   0.5692  1.1413    89.2    60.8    21.0
2019 03 25    06 10 12.8 +03 23 11   0.5789  1.1440    89.0    60.6    21.1
...
2019 03 31    06 24 45.9 -02 34 15   0.6402  1.1619    87.4    59.2    21.3
...
2019 04 08    06 42 19.3 -08 54 47   0.7271  1.1904    85.5    57.0    21.5
...
2019 04 23    07 12 34.6 -17 31 18   0.8935  1.2556    82.6    52.6    22.0

A. U. Tomatic                (C) Copyright 2019 MPC           M.P.E.C. 2019-F74



More information about the Iaude mailing list